QPF
0.00 0.00 0.00 0.00 0.00 0.00 0.00 0.00 0.00 0.00 0.01 0.03 0.03 0.02 0.01 0.01 0.01 0.00 0.00 0.00 0.00 0.00 0.01 0.01 0.01 0.01 0.00 0.00 0.01 0.04 0.04 0.03 0.02 0.02 0.02 0.03 0.04 0.06 0.07 0.07 0.09 0.04 0.02 0.03
0.00 0.00 0.00 0.00 0.00 0.00 0.00 0.00 0.00 0.00 0.01 0.02 0.03 0.03 0.02 0.01 0.00 0.00 0.00 0.00 0.00 0.00 0.00 0.01 0.01 0.01 0.00 0.00 0.00 0.01 0.02 0.02 0.02 0.02 0.03 0.03 0.03 0.05 0.06 0.06 0.10 0.06 0.04 0.03
0.00 0.00 0.00 0.00 0.00 0.00 0.00 0.00 0.00 0.01 0.01 0.02 0.03 0.03 0.03 0.02 0.01 0.01 0.00 0.00 0.00 0.00 0.00 0.01 0.01 0.01 0.00 0.00 0.00 0.00 0.01 0.02 0.02 0.04 0.04 0.04 0.03 0.03 0.05 0.06 0.07 0.07 0.04 0.04
0.00 0.00 0.00 0.00 0.00 0.00 0.00 0.00 0.00 0.01 0.01 0.02 0.03 0.03 0.02 0.02 0.01 0.01 0.01 0.00 0.00 0.00 0.00 0.01 0.01 0.01 0.00 0.00 0.00 0.00 0.00 0.01 0.01 0.02 0.03 0.03 0.03 0.03 0.03 0.03 0.04 0.05 0.04 0.04
0.00 0.00 0.00 0.00 0.01 0.00 0.00 0.00 0.00 0.01 0.02 0.02 0.02 0.03 0.02 0.01 0.01 0.01 0.01 0.00 0.00 0.00 0.00 0.01 0.01 0.01 0.00 0.00 0.01 0.00 0.00 0.00 0.01 0.02 0.02 0.03 0.03 0.03 0.03 0.03 0.04 0.04 0.04 0.04
0.00 0.00 0.00 0.00 0.01 0.01 0.01 0.01 0.01 0.01 0.02 0.02 0.02 0.01 0.01 0.01 0.00 0.00 0.00 0.00 0.00 0.00 0.00 0.00 0.01 0.01 0.00 0.00 0.00 0.01 0.01 0.01 0.01 0.01 0.02 0.02 0.03 0.03 0.03 0.03 0.04 0.04 0.05 0.06
0.02 0.01 0.01 0.00 0.00 0.01 0.01 0.01 0.01 0.01 0.01 0.01 0.01 0.01 0.00 0.00 0.00 0.00 0.00 0.00 0.00 0.00 0.00 0.00 0.01 0.00 0.00 0.00 0.00 0.00 0.01 0.01 0.01 0.01 0.02 0.02 0.02 0.03 0.03 0.03 0.03 0.04 0.05 0.05
0.01 0.01 0.00 0.00 0.00 0.01 0.01 0.01 0.01 0.02 0.02 0.02 0.01 0.01 0.01 0.01 0.00 0.00 0.00 0.01 0.01 0.00 0.00 0.00 0.00 0.00 0.00 0.00 0.00 0.00 0.01 0.01 0.01 0.01 0.01 0.02 0.03 0.03 0.03 0.03 0.03 0.03 0.04 0.04
0.01 0.00 0.00 0.00 0.00 0.00 0.01 0.00 0.01 0.02 0.02 0.02 0.01 0.01 0.01 0.01 0.00 0.00 0.00 0.01 0.01 0.00 0.00 0.00 0.00 0.00 0.00 0.01 0.01 0.01 0.01 0.01 0.00 0.01 0.01 0.01 0.02 0.03 0.03 0.04 0.05 0.04 0.04 0.04
0.01 0.00 0.00 0.00 0.00 0.00 0.00 0.00 0.00 0.01 0.02 0.01 0.01 0.01 0.01 0.00 0.00 0.00 0.00 0.01 0.01 0.01 0.00 0.00 0.00 0.00 0.00 0.01 0.01 0.02 0.02 0.01 0.01 0.01 0.01 0.01 0.02 0.02 0.03 0.05 0.05 0.06 0.05 0.04
0.01 0.01 0.01 0.01 0.00 0.00 0.01 0.01 0.01 0.00 0.01 0.01 0.01 0.01 0.01 0.00 0.00 0.00 0.01 0.01 0.01 0.01 0.00 0.00 0.00 0.00 0.00 0.00 0.01 0.02 0.02 0.02 0.01 0.00 0.01 0.01 0.01 0.02 0.03 0.04 0.04 0.05 0.05 0.04
0.00 0.01 0.01 0.01 0.00 0.01 0.01 0.01 0.01 0.01 0.01 0.01 0.01 0.01 0.01 0.01 0.01 0.00 0.00 0.01 0.01 0.01 0.00 0.00 0.00 0.00 0.00 0.00 0.00 0.01 0.02 0.02 0.01 0.01 0.01 0.01 0.01 0.01 0.02 0.03 0.03 0.04 0.04 0.05
0.01 0.01 0.02 0.02 0.01 0.01 0.01 0.01 0.01 0.01 0.01 0.01 0.01 0.01 0.01 0.01 0.01 0.00 0.00 0.00 0.00 0.00 0.00 0.00 0.00 0.00 0.00 0.00 0.00 0.01 0.02 0.02 0.01 0.01 0.02 0.01 0.01 0.01 0.02 0.02 0.03 0.03 0.04 0.04
0.02 0.02 0.02 0.03 0.02 0.01 0.01 0.01 0.01 0.01 0.02 0.01 0.01 0.01 0.01 0.01 0.01 0.01 0.00 0.00 0.01 0.01 0.01 0.00 0.00 0.00 0.00 0.00 0.00 0.00 0.01 0.01 0.01 0.01 0.01 0.01 0.01 0.01 0.01 0.02 0.02 0.03 0.03 0.04
0.02 0.02 0.02 0.02 0.02 0.01 0.01 0.01 0.01 0.01 0.01 0.01 0.00 0.01 0.00 0.01 0.01 0.01 0.01 0.00 0.00 0.01 0.01 0.00 0.00 0.00 0.00 0.00 0.00 0.00 0.00 0.01 0.01 0.01 0.02 0.01 0.01 0.02 0.02 0.02 0.02 0.02 0.03 0.04
0.01 0.01 0.02 0.02 0.03 0.02 0.01 0.01 0.01 0.01 0.01 0.01 0.01 0.01 0.00 0.01 0.00 0.00 0.00 0.00 0.00 0.00 0.01 0.00 0.00 0.00 0.00 0.00 0.01 0.00 0.00 0.01 0.01 0.01 0.01 0.02 0.02 0.02 0.02 0.02 0.02 0.02 0.02 0.03
0.01 0.01 0.01 0.01 0.02 0.03 0.02 0.01 0.01 0.01 0.01 0.01 0.01 0.01 0.01 0.01 0.01 0.00 0.00 0.00 0.00 0.00 0.00 0.00 0.00 0.00 0.00 0.01 0.01 0.01 0.01 0.00 0.01 0.01 0.01 0.01 0.01 0.01 0.02 0.03 0.02 0.01 0.02 0.03
0.01 0.01 0.02 0.01 0.02 0.03 0.02 0.00 0.00 0.01 0.01 0.00 0.00 0.01 0.00 0.00 0.00 0.00 0.00 0.00 0.00 0.00 0.00 0.00 0.00 0.00 0.01 0.01 0.01 0.01 0.01 0.01 0.01 0.01 0.01 0.01 0.01 0.01 0.02 0.02 0.01 0.01 0.02 0.02
0.01 0.01 0.02 0.02 0.02 0.02 0.01 0.00 0.00 0.00 0.00 0.00 0.00 0.00 0.00 0.01 0.00 0.00 0.00 0.00 0.00 0.00 0.00 0.00 0.00 0.00 0.01 0.01 0.01 0.01 0.01 0.01 0.01 0.01 0.01 0.01 0.01 0.01 0.02 0.02 0.02 0.02 0.02 0.02
0.02 0.02 0.02 0.02 0.02 0.01 0.01 0.00 0.00 0.00 0.00 0.00 0.00 0.00 0.00 0.00 0.00 0.00 0.00 0.00 0.00 0.00 0.00 0.00 0.00 0.00 0.00 0.00 0.01 0.01 0.02 0.02 0.01 0.01 0.02 0.01 0.01 0.01 0.02 0.02 0.02 0.02 0.02 0.02
0.03 0.02 0.02 0.02 0.02 0.01 0.01 0.01 0.00 0.00 0.00 0.00 0.00 0.00 0.00 0.00 0.00 0.00 0.00 0.00 0.00 0.00 0.00 0.00 0.00 0.00 0.00 0.01 0.01 0.02 0.03 0.02 0.02 0.02 0.02 0.02 0.01 0.01 0.02 0.03 0.03 0.03 0.02 0.03
0.04 0.03 0.02 0.02 0.03 0.03 0.01 0.02 0.01 0.00 0.00 0.00 0.00 0.00 0.00 0.00 0.00 0.00 0.00 0.00 0.00 0.00 0.00 0.00 0.00 0.00 0.01 0.01 0.02 0.03 0.02 0.02 0.02 0.02 0.02 0.01 0.01 0.02 0.02 0.03 0.04 0.04 0.03 0.03
0.03 0.03 0.04 0.03 0.02 0.02 0.01 0.02 0.02 0.00 0.00 0.00 0.00 0.00 0.00 0.00 0.00 0.00 0.00 0.00 0.00 0.00 0.00 0.00 0.00 0.00 0.01 0.02 0.03 0.03 0.03 0.03 0.02 0.02 0.02 0.01 0.01 0.02 0.02 0.03 0.04 0.05 0.04 0.04
0.03 0.03 0.03 0.03 0.02 0.01 0.01 0.01 0.01 0.01 0.00 0.00 0.00 0.00 0.00 0.00 0.00 0.00 0.00 0.00 0.00 0.00 0.00 0.00 0.00 0.00 0.01 0.02 0.03 0.04 0.04 0.03 0.03 0.02 0.02 0.01 0.01 0.02 0.03 0.03 0.04 0.04 0.04 0.04
0.04 0.03 0.04 0.04 0.03 0.02 0.02 0.01 0.01 0.01 0.01 0.01 0.00 0.00 0.00 0.00 0.00 0.00 0.00 0.00 0.00 0.00 0.00 0.00 0.00 0.01 0.01 0.01 0.03 0.05 0.06 0.06 0.05 0.03 0.02 0.01 0.01 0.02 0.03 0.04 0.03 0.03 0.03 0.04
0.05 0.04 0.05 0.06 0.04 0.03 0.03 0.02 0.01 0.01 0.01 0.00 0.00 0.00 0.00 0.00 0.00 0.00 0.00 0.00 0.00 0.00 0.00 0.00 0.01 0.01 0.01 0.02 0.03 0.06 0.08 0.08 0.07 0.05 0.04 0.03 0.02 0.02 0.02 0.03 0.04 0.03 0.03 0.03
MSLP
1012.39 1013.16 1013.73 1014.08 1014.24 1014.25 1014.19 1014.11 1014.07 1014.10 1014.17 1014.28 1014.39 1014.48 1014.52 1014.51 1014.48 1014.43 1014.38 1014.34 1014.31 1014.27 1014.20 1014.08 1013.90 1013.67 1013.43 1013.20 1013.03 1012.95 1012.98 1013.12 1013.34 1013.58 1013.81 1013.98 1014.06 1014.02 1013.90 1013.72 1013.53 1013.38 1013.32 1013.37
1012.93 1013.52 1013.90 1014.08 1014.10 1014.02 1013.93 1013.88 1013.91 1014.03 1014.20 1014.39 1014.56 1014.68 1014.74 1014.73 1014.69 1014.64 1014.60 1014.59 1014.59 1014.57 1014.52 1014.41 1014.22 1013.97 1013.69 1013.42 1013.22 1013.13 1013.17 1013.34 1013.61 1013.91 1014.20 1014.40 1014.49 1014.45 1014.30 1014.07 1013.83 1013.65 1013.56 1013.60
1013.24 1013.63 1013.81 1013.82 1013.72 1013.59 1013.51 1013.53 1013.66 1013.88 1014.16 1014.43 1014.65 1014.79 1014.83 1014.81 1014.75 1014.68 1014.65 1014.66 1014.69 1014.72 1014.70 1014.62 1014.44 1014.19 1013.90 1013.62 1013.41 1013.32 1013.39 1013.59 1013.90 1014.25 1014.58 1014.82 1014.93 1014.89 1014.72 1014.46 1014.20 1013.99 1013.88 1013.92
1013.36 1013.54 1013.53 1013.40 1013.23 1013.10 1013.07 1013.19 1013.45 1013.80 1014.17 1014.51 1014.75 1014.88 1014.88 1014.80 1014.69 1014.59 1014.55 1014.56 1014.63 1014.71 1014.75 1014.71 1014.58 1014.36 1014.09 1013.82 1013.62 1013.54 1013.61 1013.84 1014.17 1014.56 1014.92 1015.19 1015.32 1015.29 1015.12 1014.87 1014.59 1014.38 1014.27 1014.30
1013.35 1013.34 1013.18 1012.96 1012.77 1012.69 1012.76 1013.02 1013.41 1013.88 1014.35 1014.72 1014.96 1015.03 1014.96 1014.79 1014.59 1014.43 1014.35 1014.36 1014.45 1014.58 1014.68 1014.72 1014.65 1014.49 1014.26 1014.02 1013.83 1013.76 1013.84 1014.07 1014.41 1014.81 1015.18 1015.46 1015.61 1015.60 1015.46 1015.23 1014.98 1014.78 1014.68 1014.71
1013.33 1013.16 1012.90 1012.63 1012.47 1012.47 1012.68 1013.08 1013.61 1014.19 1014.71 1015.09 1015.28 1015.26 1015.07 1014.78 1014.47 1014.23 1014.09 1014.09 1014.21 1014.39 1014.57 1014.68 1014.69 1014.60 1014.43 1014.23 1014.06 1013.99 1014.06 1014.27 1014.59 1014.97 1015.34 1015.62 1015.79 1015.81 1015.70 1015.51 1015.31 1015.15 1015.07 1015.12
1013.38 1013.09 1012.76 1012.50 1012.40 1012.50 1012.84 1013.37 1014.01 1014.66 1015.20 1015.55 1015.66 1015.52 1015.20 1014.78 1014.35 1014.01 1013.83 1013.81 1013.95 1014.18 1014.43 1014.63 1014.73 1014.72 1014.61 1014.45 1014.30 1014.22 1014.27 1014.44 1014.72 1015.05 1015.39 1015.67 1015.84 1015.89 1015.83 1015.70 1015.55 1015.45 1015.42 1015.48
1013.55 1013.19 1012.83 1012.59 1012.55 1012.75 1013.18 1013.79 1014.50 1015.16 1015.67 1015.96 1015.96 1015.71 1015.26 1014.71 1014.19 1013.78 1013.55 1013.53 1013.69 1013.98 1014.30 1014.59 1014.77 1014.84 1014.79 1014.67 1014.53 1014.45 1014.46 1014.57 1014.79 1015.07 1015.36 1015.61 1015.79 1015.86 1015.85 1015.78 1015.71 1015.66 1015.68 1015.77
1013.86 1013.45 1013.09 1012.87 1012.86 1013.10 1013.57 1014.21 1014.90 1015.52 1015.96 1016.15 1016.05 1015.69 1015.14 1014.51 1013.92 1013.48 1013.25 1013.25 1013.45 1013.79 1014.19 1014.55 1014.81 1014.94 1014.95 1014.87 1014.75 1014.65 1014.62 1014.69 1014.85 1015.06 1015.30 1015.52 1015.68 1015.78 1015.81 1015.80 1015.78 1015.80 1015.86 1015.99
1014.26 1013.83 1013.46 1013.23 1013.22 1013.45 1013.88 1014.45 1015.05 1015.57 1015.91 1015.98 1015.79 1015.35 1014.75 1014.11 1013.52 1013.11 1012.92 1012.97 1013.22 1013.62 1014.08 1014.50 1014.82 1015.01 1015.07 1015.02 1014.92 1014.82 1014.77 1014.80 1014.91 1015.07 1015.26 1015.45 1015.60 1015.70 1015.76 1015.80 1015.83 1015.90 1016.01 1016.16
1014.67 1014.23 1013.85 1013.59 1013.52 1013.66 1013.97 1014.40 1014.85 1015.21 1015.40 1015.37 1015.11 1014.65 1014.07 1013.47 1012.97 1012.64 1012.54 1012.67 1012.99 1013.45 1013.95 1014.42 1014.78 1015.01 1015.11 1015.10 1015.03 1014.95 1014.90 1014.91 1015.00 1015.13 1015.29 1015.46 1015.60 1015.71 1015.79 1015.85 1015.92 1016.02 1016.15 1016.32
1015.00 1014.58 1014.17 1013.86 1013.69 1013.68 1013.81 1014.03 1014.27 1014.45 1014.49 1014.36 1014.06 1013.63 1013.13 1012.65 1012.29 1012.10 1012.13 1012.36 1012.76 1013.27 1013.80 1014.29 1014.67 1014.93 1015.06 1015.09 1015.06 1015.02 1015.00 1015.04 1015.13 1015.27 1015.42 1015.58 1015.72 1015.83 1015.92 1016.00 1016.09 1016.20 1016.35 1016.53
1015.21 1014.80 1014.37 1013.98 1013.68 1013.49 1013.41 1013.40 1013.41 1013.39 1013.28 1013.07 1012.77 1012.41 1012.03 1011.73 1011.55 1011.53 1011.71 1012.05 1012.52 1013.07 1013.61 1014.09 1014.47 1014.74 1014.89 1014.97 1014.99 1015.02 1015.07 1015.16 1015.30 1015.47 1015.65 1015.82 1015.97 1016.10 1016.20 1016.29 1016.38 1016.50 1016.65 1016.82
1015.26 1014.87 1014.42 1013.96 1013.53 1013.16 1012.86 1012.61 1012.39 1012.18 1011.95 1011.68 1011.40 1011.13 1010.91 1010.78 1010.80 1010.97 1011.29 1011.73 1012.26 1012.82 1013.35 1013.81 1014.18 1014.44 1014.62 1014.74 1014.84 1014.94 1015.08 1015.26 1015.48 1015.71 1015.94 1016.15 1016.33 1016.48 1016.59 1016.69 1016.79 1016.91 1017.05 1017.22
1015.16 1014.80 1014.34 1013.82 1013.28 1012.75 1012.25 1011.79 1011.38 1010.99 1010.65 1010.34 1010.09 1009.91 1009.84 1009.90 1010.09 1010.42 1010.87 1011.39 1011.96 1012.52 1013.02 1013.45 1013.79 1014.04 1014.24 1014.41 1014.59 1014.79 1015.03 1015.31 1015.62 1015.94 1016.24 1016.51 1016.73 1016.91 1017.05 1017.17 1017.28 1017.41 1017.55 1017.72
1014.94 1014.61 1014.15 1013.59 1012.98 1012.33 1011.68 1011.06 1010.48 1009.96 1009.52 1009.17 1008.94 1008.84 1008.88 1009.08 1009.42 1009.87 1010.41 1011.00 1011.58 1012.13 1012.60 1012.99 1013.30 1013.55 1013.78 1014.00 1014.25 1014.55 1014.90 1015.29 1015.70 1016.11 1016.49 1016.83 1017.10 1017.33 1017.50 1017.66 1017.80 1017.95 1018.11 1018.29
1014.62 1014.32 1013.88 1013.32 1012.66 1011.95 1011.20 1010.46 1009.76 1009.13 1008.61 1008.22 1007.98 1007.92 1008.03 1008.31 1008.74 1009.28 1009.87 1010.49 1011.08 1011.62 1012.07 1012.44 1012.74 1013.00 1013.25 1013.53 1013.86 1014.24 1014.69 1015.17 1015.68 1016.17 1016.63 1017.03 1017.37 1017.65 1017.88 1018.08 1018.27 1018.46 1018.66 1018.87
1014.25 1013.97 1013.56 1013.01 1012.35 1011.61 1010.81 1010.00 1009.22 1008.50 1007.90 1007.45 1007.18 1007.11 1007.23 1007.54 1008.00 1008.57 1009.20 1009.83 1010.44 1010.98 1011.43 1011.80 1012.12 1012.41 1012.71 1013.04 1013.43 1013.89 1014.41 1014.97 1015.54 1016.10 1016.62 1017.09 1017.49 1017.83 1018.12 1018.39 1018.64 1018.90 1019.16 1019.42
1013.86 1013.59 1013.19 1012.67 1012.04 1011.30 1010.49 1009.64 1008.80 1008.01 1007.33 1006.80 1006.46 1006.32 1006.40 1006.69 1007.14 1007.71 1008.36 1009.01 1009.64 1010.21 1010.71 1011.12 1011.49 1011.83 1012.19 1012.57 1013.02 1013.53 1014.09 1014.69 1015.31 1015.91 1016.47 1016.99 1017.45 1017.85 1018.22 1018.56 1018.89 1019.22 1019.55 1019.87
1013.46 1013.17 1012.79 1012.30 1011.70 1010.99 1010.19 1009.32 1008.43 1007.58 1006.81 1006.18 1005.74 1005.51 1005.51 1005.74 1006.15 1006.71 1007.37 1008.06 1008.74 1009.38 1009.94 1010.44 1010.89 1011.30 1011.71 1012.15 1012.64 1013.17 1013.76 1014.38 1015.01 1015.63 1016.22 1016.77 1017.28 1017.75 1018.19 1018.60 1019.02 1019.42 1019.83 1020.22
1013.06 1012.74 1012.36 1011.90 1011.33 1010.65 1009.87 1008.99 1008.07 1007.16 1006.30 1005.57 1005.01 1004.67 1004.57 1004.72 1005.08 1005.63 1006.30 1007.04 1007.80 1008.53 1009.20 1009.81 1010.35 1010.85 1011.33 1011.81 1012.32 1012.86 1013.44 1014.05 1014.67 1015.30 1015.90 1016.49 1017.04 1017.57 1018.08 1018.57 1019.06 1019.54 1020.01 1020.46
1012.67 1012.31 1011.92 1011.47 1010.93 1010.29 1009.52 1008.65 1007.70 1006.73 1005.79 1004.95 1004.28 1003.82 1003.62 1003.69 1004.02 1004.55 1005.26 1006.06 1006.91 1007.75 1008.55 1009.27 1009.92 1010.50 1011.04 1011.55 1012.07 1012.60 1013.15 1013.74 1014.35 1014.96 1015.58 1016.20 1016.80 1017.39 1017.96 1018.52 1019.07 1019.61 1020.13 1020.63
1012.30 1011.89 1011.49 1011.05 1010.53 1009.91 1009.17 1008.30 1007.34 1006.32 1005.31 1004.38 1003.61 1003.06 1002.77 1002.78 1003.06 1003.60 1004.34 1005.22 1006.16 1007.12 1008.03 1008.86 1009.60 1010.25 1010.83 1011.35 1011.86 1012.37 1012.90 1013.45 1014.04 1014.66 1015.30 1015.95 1016.60 1017.25 1017.88 1018.51 1019.11 1019.69 1020.24 1020.76
1011.94 1011.50 1011.08 1010.65 1010.15 1009.56 1008.84 1007.99 1007.01 1005.96 1004.91 1003.92 1003.07 1002.45 1002.10 1002.06 1002.33 1002.88 1003.65 1004.59 1005.62 1006.67 1007.67 1008.58 1009.39 1010.08 1010.67 1011.20 1011.68 1012.16 1012.66 1013.19 1013.78 1014.40 1015.07 1015.77 1016.48 1017.19 1017.89 1018.56 1019.20 1019.80 1020.37 1020.89
1011.58 1011.12 1010.70 1010.27 1009.80 1009.24 1008.55 1007.72 1006.76 1005.71 1004.63 1003.61 1002.73 1002.07 1001.68 1001.62 1001.88 1002.44 1003.24 1004.23 1005.31 1006.42 1007.47 1008.43 1009.26 1009.96 1010.55 1011.05 1011.51 1011.95 1012.42 1012.95 1013.53 1014.19 1014.90 1015.66 1016.44 1017.21 1017.97 1018.68 1019.35 1019.97 1020.52 1021.03
1011.20 1010.74 1010.33 1009.93 1009.49 1008.96 1008.31 1007.51 1006.58 1005.56 1004.50 1003.48 1002.60 1001.93 1001.54 1001.47 1001.73 1002.30 1003.11 1004.11 1005.22 1006.34 1007.40 1008.36 1009.18 1009.86 1010.42 1010.89 1011.30 1011.72 1012.18 1012.70 1013.31 1014.01 1014.78 1015.60 1016.44 1017.28 1018.09 1018.85 1019.53 1020.15 1020.69 1021.18
Thickness
5748 5731 5722 5728 5733 5733 5730 5724 5720 5727 5742 5735 5726 5725 5730 5735 5733 5729 5727 5727 5727 5728 5731 5733 5732 5731 5729 5727 5726 5723 5721 5720 5718 5716 5713 5710 5709 5709 5709 5708 5708 5708 5707 5705
5726 5721 5735 5741 5740 5735 5728 5719 5718 5726 5738 5732 5722 5722 5728 5730 5730 5730 5727 5725 5725 5725 5726 5728 5728 5727 5725 5723 5722 5721 5719 5717 5716 5714 5712 5710 5708 5706 5706 5706 5705 5705 5704 5703
5717 5728 5743 5738 5731 5726 5722 5717 5717 5718 5726 5727 5719 5709 5715 5724 5728 5728 5727 5727 5726 5725 5724 5723 5723 5722 5721 5720 5719 5719 5717 5715 5714 5713 5711 5708 5705 5703 5702 5701 5701 5702 5702 5701
5721 5734 5736 5729 5725 5724 5713 5727 5725 5720 5707 5698 5708 5684 5702 5712 5715 5719 5720 5720 5721 5723 5722 5721 5720 5719 5718 5717 5717 5716 5714 5713 5711 5710 5707 5704 5700 5696 5697 5698 5698 5699 5699 5699
5716 5728 5726 5721 5725 5728 5721 5731 5725 5719 5707 5696 5698 5686 5692 5706 5704 5710 5715 5717 5719 5720 5719 5718 5717 5716 5716 5716 5714 5713 5711 5710 5708 5707 5705 5702 5699 5697 5696 5696 5696 5696 5696 5695
5721 5731 5728 5726 5731 5732 5730 5721 5714 5703 5693 5679 5691 5683 5685 5698 5706 5711 5714 5716 5716 5716 5716 5715 5715 5714 5713 5712 5711 5709 5707 5705 5705 5703 5701 5699 5696 5695 5693 5692 5692 5692 5692 5692
5706 5716 5726 5730 5719 5721 5716 5693 5674 5671 5665 5670 5692 5685 5687 5708 5717 5717 5714 5713 5713 5713 5711 5710 5709 5708 5707 5707 5706 5705 5703 5701 5700 5699 5697 5696 5695 5693 5691 5690 5690 5689 5688 5688
5685 5688 5711 5719 5713 5705 5704 5692 5669 5661 5660 5669 5685 5679 5692 5712 5717 5717 5715 5712 5710 5708 5707 5707 5706 5705 5704 5703 5702 5701 5699 5697 5697 5695 5694 5693 5692 5691 5689 5689 5688 5687 5687 5687
5681 5684 5711 5718 5719 5712 5699 5689 5690 5673 5672 5664 5670 5682 5695 5706 5705 5706 5705 5705 5704 5704 5704 5703 5702 5702 5700 5699 5698 5697 5695 5694 5693 5692 5690 5689 5689 5688 5687 5687 5687 5686 5685 5686
5687 5680 5697 5709 5713 5711 5706 5696 5677 5668 5659 5652 5663 5669 5673 5687 5692 5696 5697 5697 5699 5700 5700 5699 5698 5698 5697 5696 5695 5694 5692 5690 5689 5687 5686 5687 5685 5685 5685 5684 5684 5683 5684 5683
5682 5673 5679 5689 5688 5687 5692 5688 5678 5664 5660 5650 5648 5661 5690 5689 5692 5692 5693 5695 5695 5695 5695 5695 5694 5694 5693 5692 5690 5688 5687 5686 5685 5683 5683 5682 5682 5682 5681 5681 5681 5681 5681 5681
5672 5661 5660 5674 5689 5695 5689 5682 5671 5658 5656 5653 5647 5658 5695 5693 5693 5692 5690 5691 5692 5692 5692 5691 5689 5688 5687 5685 5684 5683 5682 5681 5680 5680 5679 5678 5678 5678 5677 5677 5677 5678 5678 5678
5666 5654 5645 5654 5666 5677 5678 5680 5675 5663 5652 5645 5642 5656 5687 5686 5686 5687 5686 5686 5686 5686 5685 5684 5683 5681 5680 5680 5679 5678 5677 5676 5676 5675 5674 5673 5672 5673 5673 5673 5674 5674 5675 5675
5663 5646 5642 5642 5650 5659 5664 5671 5672 5660 5645 5643 5649 5658 5670 5674 5676 5678 5680 5680 5680 5679 5679 5677 5675 5675 5674 5674 5673 5672 5671 5672 5671 5670 5669 5668 5668 5668 5669 5669 5669 5670 5670 5670
5653 5640 5645 5649 5657 5659 5660 5662 5666 5661 5655 5648 5653 5656 5663 5668 5671 5673 5674 5673 5673 5671 5671 5670 5668 5668 5667 5667 5667 5666 5666 5666 5666 5665 5664 5664 5665 5664 5664 5664 5664 5665 5665 5666
5641 5636 5638 5641 5652 5653 5652 5657 5659 5658 5658 5655 5655 5654 5666 5667 5666 5665 5665 5665 5663 5663 5663 5663 5663 5662 5661 5661 5661 5661 5661 5661 5661 5659 5659 5660 5660 5659 5659 5659 5659 5659 5659 5660
5628 5627 5623 5622 5637 5640 5635 5650 5652 5653 5656 5654 5647 5653 5660 5657 5658 5657 5657 5657 5655 5656 5656 5656 5655 5655 5655 5656 5656 5655 5656 5656 5655 5654 5654 5654 5654 5654 5655 5655 5654 5654 5654 5654
5622 5617 5609 5611 5621 5617 5637 5654 5655 5651 5651 5653 5652 5653 5655 5655 5655 5654 5653 5650 5649 5649 5649 5649 5648 5649 5650 5651 5651 5651 5651 5650 5649 5648 5649 5649 5648 5648 5649 5649 5649 5649 5649 5649
5625 5616 5604 5601 5605 5615 5635 5647 5648 5643 5641 5648 5647 5648 5649 5649 5646 5643 5647 5647 5645 5644 5643 5643 5643 5644 5643 5644 5644 5644 5643 5643 5642 5642 5643 5644 5644 5643 5643 5643 5644 5644 5644 5644
5618 5612 5600 5596 5599 5604 5626 5643 5648 5641 5629 5641 5642 5640 5640 5638 5625 5628 5638 5639 5639 5638 5638 5637 5637 5637 5636 5636 5637 5636 5636 5635 5636 5637 5638 5639 5639 5639 5639 5640 5640 5641 5640 5641
5603 5599 5593 5591 5591 5604 5626 5636 5638 5618 5622 5635 5636 5635 5633 5627 5626 5629 5632 5632 5632 5631 5630 5630 5629 5628 5628 5628 5629 5628 5628 5628 5631 5632 5633 5633 5633 5633 5635 5635 5635 5636 5636 5635
5597 5592 5589 5585 5583 5598 5625 5627 5621 5619 5626 5629 5629 5629 5627 5626 5626 5625 5624 5624 5624 5623 5622 5622 5620 5620 5620 5621 5620 5619 5620 5623 5624 5625 5626 5627 5627 5628 5629 5628 5629 5630 5629 5629
5596 5597 5593 5594 5598 5612 5618 5620 5622 5622 5620 5621 5622 5623 5623 5620 5618 5618 5616 5615 5615 5615 5614 5613 5612 5611 5612 5612 5612 5611 5614 5615 5616 5617 5617 5619 5620 5621 5621 5621 5622 5622 5622 5622
5594 5598 5594 5594 5602 5608 5612 5615 5617 5617 5616 5616 5616 5617 5616 5613 5611 5609 5608 5607 5606 5606 5605 5605 5603 5603 5603 5604 5605 5605 5607 5607 5607 5608 5610 5611 5612 5612 5613 5614 5615 5615 5615 5615
5588 5591 5588 5589 5597 5600 5605 5607 5608 5610 5610 5610 5609 5609 5609 5606 5604 5602 5600 5599 5599 5598 5597 5596 5595 5595 5596 5597 5597 5599 5599 5599 5599 5600 5602 5603 5604 5605 5605 5606 5607 5609 5610 5611
5584 5585 5582 5584 5591 5589 5595 5601 5603 5602 5602 5602 5601 5600 5601 5599 5597 5596 5593 5592 5591 5590 5589 5588 5588 5588 5588 5589 5589 5590 5591 5591 5591 5592 5593 5594 5595 5596 5597 5597 5599 5602 5603 5605